Погода в Танде

Россия / Республика Саха (Якутия)     62°38′47″N   131°59′38″E
темп.,
°C
ветер,
м/с
пор.,
м/с
влажн.,
%
обл.,
%
осадки,
мм/ч
давл.,
гПа
погр.,
м
27 февраля, сб
сб2700:00−34в229721 0.0 103419
03:00−35в239811 0.0 103321
06:00−35в23980 0.0 103233
09:00−33в25971 0.0 1031141
12:00−27в249320 0.0 1029307
15:00−24всв359245 0.0 1026380
18:00−28всв229684 0.0 102421
21:00−30всв239592 0.0 102273
28 февраля, вс
вс2800:00−30св2493100 0.0 101996
03:00−30св1290100 0.0 101619
06:00−29ссз1289100 0.0 101619
09:00−27ссз1389100 0.0 101688
12:00−21ююв0183100 0.0 1018338
15:00−21з238897 0.0 1018530
18:00−24з2597100 0.1 1021232
21:00−28зсз2697100 0.1 1023248
1 марта, пн
пн100:00−28зюз2498100 0.0 1023150
03:00−29юз2597100 0.1 1024152
06:00−29юз2298100 0.0 102457
09:00−27зюз2493100 0.1 1025567
12:00−26юз2387100 0.0 1025795
15:00−26зюз2386100 0.1 1025868
18:00−28зюз1196100 0.1 102619
21:00−29юз119898 0.1 102619
2 марта, вт
вт200:00−30зюз119894 0.0 102619
03:00−32зюз129997 0.0 102519
06:00−34зюз2210096 0.0 102619
09:00−32юз139883 0.0 102690
12:00−27зюз238884 0.0 1025472
15:00−27зюз229192 0.1 1025573
18:00−29зюз1298100 0.1 102620
21:00−29зюз1198100 0.2 102619
3 марта, ср
ср300:00−29зюз1199100 0.1 102519
03:00−30з1199100 0.2 102519
06:00−30зсз0198100 0.1 102419
09:00−29з0197100 0.1 1024123
12:00−26зсз1189100 0.1 1022489
15:00−26зсз1284100 0.1 1020745
18:00−28з2297100 0.1 101933
21:00−31з2398100 0.1 101841